INTELSAT 33E DEB, 62003

Orbit data source: Space-Track

INTELSAT 33E DEB, 62003 is space debris in GEO originally from a launch on Wed, 24 Aug 2016 UTC launched from the French Guiana (FRGUI). Debris objects in space refer to the collection of defunct objects orbiting the Earth. Examples of debris include non-operational satellites, rocket bodies, and fragments generated from explosions, collisions, or faulty payload assembly.

Loading next visibility...
Identifier
62003, 2016-053V
Orbit
GEO
Country
Flag of UnknownUnknown / ITSO
Related business
Manufacturer
Boeing/ES
Mission
Spacecraft
Bus & Motor
Unknown
Mass
Unknown
Launch date (UTC)
2016-08-24 (9 years ago)
Launch vehicle
Unknown
Launch site
French Guiana (FRGUI)
Object type
Payload
Rocket body
Debris
Shape & HBR
Unknown shape, 1.1 m
Radar Cross Section
RCS unknown

Expand to show TLE details & history
Last TLE update: 1 day ago

TLE from 1 day ago
0 INTELSAT 33E DEB
1 62003U 16053V   25340.21329141 -.00000277  00000-0  00000-0 0  9990
2 62003   1.1279  92.3446 0020171 206.4657 152.2086  1.00433687  4147
Epoch: 2025-12-06T05:07Z
TLE epoch observation values (Epoch: 2025-12-06T05:07:08.377Z)
Latitude
-0°
Longitude
-60.91546°
Altitude
35,816.162 km
Speed
3.071 km/s
True Right ascension
06h 04m 27s
True Declination
0° 00' 00"
Sunlit
Object was in daylight at epoch
Visualization orbit readout
Latitude
Unknown
Longitude
Unknown
Altitude
Unknown
Speed
Unknown
Apparent Right ascension
Unknown
Apparent Declination
Unknown
Sunlit
N/A
Visualization observer readout
Local Sidereal Time
03:29:43
Azimuth
Unknown
Elevation
Unknown
Doppler factor
Unknown
Orbital elements
Apogee altitude
35,827.301 km
Perigee altitude
35,657.379 km
Semi-major axis
42,120.477 km
Eccentricity
0.00202
Inclination
1.1279°
RAAN
92.3446°
Arg. of periapsis
206.4657°
True anomaly
152.31613°
Mean anomaly
152.2086°
Eccentric anomaly
152.26239°
Mean motion
0.25107 °/min
Orbital period
1,433.84 mins
BSTAR
0
Loading maneuver chart data...
Computing Atmospheric mass density...
Loading historical data...
Loading historical data...
Loading historical data...
Loading historical data...
Loading historical data...
Loading historical data...
Loading historical data...

Documentation

Showing up to 5 results
|